Location: Arrodets-la-Barthe
(43.0306°N, 0.2829°E)
Time: 17:03:26
(UTC+00:00)

Lacrosse 4 Rocket - Pass Details

Date: 04 June 2022
Orbit: 541 x 611 km, 68.0° (Epoch: 30 June)

Event Time Altitude Azimuth Distance (km) Brightness Sun altitude
Exits shadow 02:02:05 44° 202° (SSW) 803 1.6 -18.5°
Maximum altitude 02:03:23 85° 118° (ESE) 580 1.3 -18.4°
Drops below altitude 10° 02:07:34 10° 30° (NNE) 1,863 5.3 -18.0°
Sets 02:09:46 0° 30° (NNE) 2,752 6.7 -17.8°
